Tracking 29892 objects as of 21-Nov-2024
HD Live streaming from Space Station
objects crossing your sky now

STARLINK-2067

Track STARLINK-2067 now!
10-day predictions
STARLINK-2067 is classified as:


NORAD ID: 47674
Int'l Code: 2021-012BG
Perigee: 470.6 km
Apogee: 472.6 km
Inclination: 53.1 °
Period: 93.9 minutes
Semi major axis: 6842 km
RCS: Unknown
Launch date: February 16, 2021
Source: United States (US)
Launch site: AIR FORCE EASTERN TEST RANGE (AFETR)
Your satellite tracking list
Your tracking list is empty




NASA's NSSDC Master Catalog

Two Line Element Set (TLE):
1 47674U 21012BG  24325.91668981  .00558191  00000-0  15803-1 0  9995
2 47674  53.0552  16.0489 0001431  70.3123 188.2475 15.33814168  5643
Source of the keplerian elements: AFSPC